STARLINK-32420, 61931

Orbit data source: Space-Track

STARLINK-32420, 61931 is a payload satellite owned by SpaceX/Seattle (US) in LEO that was launched on Mon, 11 Nov 2024 UTC via an FALCON 9 launch vehicle from the Air Force Eastern Test Range (AFETR). Payload-class satellites include a variety of spacecraft equipped with specific instruments for various scientific and technological missions. These include communications satellites like Starlink; space stations such as the ISS; scientific satellites like the Hubble; Earth observation satellites from companies like Planet Labs, Umbra, and HawkEye 360; GPS; miniature CubeSats for education and research; and military/defense satellites.

Loading next visibility...
Identifier
61931, 2024-207V
Orbit
LEO
Country
Flag of USUS
Related business
Manufacturer
SpaceX/Seattle
Mission
Operational Commercial Communications
Bus & Motor
STARLINK V2M, Unknown motor
Mass
730 kg wet, ~700 kg dry
Launch date (UTC)
2024-11-11 (2 years ago)
Launch vehicle
FALCON 9
Launch site
Air Force Eastern Test Range (AFETR)
Object type
Payload
Rocket body
Debris
Shape & HBR
Box + 2 Pan, 17.7 m
Radar Cross Section
33.884 m², Large (>1 m²)

Expand to show TLE details & history
Last TLE update: 16 hours ago

TLE from 16 hours ago
0 STARLINK-32420
1 61931U 24207V   26263.07219544  .00013792  00000-0  50965-3 0  9996
2 61931  42.9980 263.6860 0001255 255.2634 104.8079 15.27588787104456
Epoch: 2026-09-20T01:43Z
TLE epoch observation values (Epoch: 2026-09-20T01:43:57.686Z)
Latitude
0.00003°
Longitude
-121.27595°
Altitude
483.018 km
Speed
7.626 km/s
True Right ascension
17h 34m 44s
True Declination
0° 00' 00"
Sunlit
Object was in daylight at epoch
Visualization orbit readout
Latitude
Unknown
Longitude
Unknown
Altitude
Unknown
Speed
Unknown
Apparent Right ascension
Unknown
Apparent Declination
Unknown
Sunlit
N/A
Visualization observer readout
Local Sidereal Time
10:30:34
Azimuth
Unknown
Elevation
Unknown
Doppler factor
Unknown
Orbital elements
Apogee altitude
485.83 km
Perigee altitude
484.107 km
Semi-major axis
6,863.105 km
Eccentricity
0.00013
Inclination
42.998°
RAAN
263.686°
Arg. of periapsis
255.2634°
True anomaly
104.8218°
Mean anomaly
104.8079°
Eccentric anomaly
104.81485°
Mean motion
3.81735 °/min
Orbital period
94.31 mins
BSTAR
0.00050965
Loading maneuver chart data...
Computing Atmospheric mass density...
Loading historical data...
Loading historical data...
Loading historical data...
Loading historical data...
Loading historical data...
Loading historical data...
Loading historical data...

Documentation

Showing up to 5 results
|